SCP
0 0 0 0 0 0 0 0 0 0 0 0 0 0 0 0 0 0 0 0 0 0 0 0 0 0 0
0 0 0 0 0 0 0 0 0 0 0 0 0 0 0 0 0 0 0 0 0 0 0 0 0 0 0
0 0 0 0 0 0 0 0 0 0 0 0 0 0 0 0 0 0 0 0 0 0 0 0 0 0 0
0 0 0 0 0 0 0 0 0 0 0 0 0 0 0 0 0 0 0 0 0 0 0 0 0 0 0
0 0 0 0 0 0 0 0 0 0 0 0 0 0 0 0 0 0 0 0 0 0 0 0 0 0 0
0 0 0 0 0 0 0 0 0 0 0 0 0 0 0 0 0 0 0 0 0 0 0 0 0 0 0
0 0 0 0 0 0 0 0 0 0 0 0 0 0 0 0 0 0 0 0 0 0 0 0 0 0 0
0 0 0 0 0 0 0 0 0 0 0 0 0 0 0 0 0 0 0 0 0 0 0 0 0 0 0
0 0 0 0 0 0 0 0 0 0 0 0 0 0 0 0 0 0 0 0 0 0 0 0 0 0 0
0 0 0 0 0 0 0 0 0 0 0 0 0 0 0 0 0 0 0 0 0 0 0 0 0 0 0
0 0 0 0 0 0 0 0 0 0 0 0 0 0 0 0 0 0 0 0 0 0 0 0 0 0 0
0 0 0 0 0 0 0 0 0 0 0 0 0 0 0 0 0 0 0 0 0 0 0 0 0 0 0
0 0 0 0 0 0 0 0 0 0 0 0 0 0 0 0 0 0 0 0 0 0 0 0 0 0 0
0 0 0 0 0 0 0 0 0 0 0 0 0 0 0 0 0 0 0 0 0 0 0 0 0 0 0
0 0 0 0 0 0 0 0 0 0 0 0 0 0 0 0 0 0 0 0 0 0 0 0 0 0 0
0 0 0 0 0 0 0 0 0 0 0 0 0 0 0 0 0 0 0 0 0 0 0 0 0 0 0
Wind_Speed_500mb
22 20 19 18 18 17 16 17 18 18 19 19 21 22 24 25 26 26 29 30 31 34 36 38 40 43 49
20 19 19 19 19 20 19 19 19 19 18 18 18 18 19 21 25 30 36 37 39 39 42 45 45 46 49
18 18 18 18 19 18 16 16 15 14 14 14 15 17 20 23 26 29 32 34 37 41 47 52 53 54 54
20 21 21 21 21 20 19 18 17 17 18 19 22 25 28 32 35 39 43 46 48 50 50 50 53 60 60
23 24 24 24 23 20 19 17 15 14 16 20 25 30 35 39 43 47 50 53 56 60 61 61 62 62 63
21 22 22 21 20 18 16 15 15 18 23 28 33 37 42 46 48 51 52 54 56 59 63 67 69 71 71
22 23 23 22 21 19 18 19 22 25 28 33 39 44 47 49 50 52 53 55 58 61 64 68 70 73 75
23 24 24 23 21 20 20 22 25 29 34 41 46 49 49 49 50 52 55 57 59 63 65 68 70 72 77
24 26 26 25 24 23 22 25 29 35 41 47 48 47 47 47 50 53 55 58 61 63 66 66 68 69 71
28 30 29 27 25 24 25 27 33 40 45 46 46 47 48 50 53 56 58 62 63 65 68 69 69 70 70
32 32 30 29 27 26 27 31 37 41 43 44 45 47 48 49 51 56 57 64 67 69 74 75 74 74 71
38 35 34 31 29 27 29 34 38 40 41 41 43 44 45 46 50 55 60 61 66 72 77 78 78 73 68
42 37 36 33 29 28 30 34 36 38 39 38 38 40 45 49 54 58 62 64 66 66 72 75 73 59 43
42 36 36 32 29 28 31 33 34 35 34 34 37 42 48 51 53 56 58 60 59 54 51 59 37 49 26
45 40 37 33 30 29 30 30 31 30 31 35 40 46 50 54 57 57 54 50 50 49 41 25 20 16 63
48 42 38 33 28 27 28 27 26 27 31 37 43 48 52 55 56 55 49 44 40 41 36 23 21 35 24
Wind_Direction_500mb
193 198 203 215 222 226 233 240 242 246 251 255 258 261 263 262 262 265 269 273 272 275 276 274 272 270 266
196 199 203 209 221 229 233 237 241 245 251 257 262 266 266 265 267 268 265 264 267 267 266 267 265 261 261
198 203 206 206 209 210 213 217 222 231 240 253 266 275 281 284 286 285 284 283 280 277 271 271 274 275 274
209 216 220 224 225 223 222 226 232 241 253 265 274 280 284 285 285 285 284 283 281 279 277 274 271 267 266
223 227 227 225 224 224 224 227 234 248 263 275 282 286 288 288 287 286 285 284 283 282 279 277 275 273 271
218 220 217 211 210 212 218 231 250 268 279 287 291 293 293 292 290 289 287 285 284 282 281 279 276 274 271
221 218 212 210 213 220 236 255 268 279 288 295 299 300 299 297 296 294 293 292 290 287 284 282 280 277 273
221 218 216 218 225 237 253 268 281 290 298 304 306 304 302 300 299 299 299 298 297 296 293 289 286 282 279
224 222 223 227 235 248 264 278 290 300 307 307 304 302 301 304 307 307 306 304 302 299 297 294 291 288 284
224 225 229 234 243 255 268 283 296 304 305 304 304 305 308 312 312 311 310 307 304 301 298 296 294 292 291
226 227 233 238 247 258 274 290 299 302 303 305 307 310 313 314 314 313 312 310 309 306 303 302 300 297 294
222 227 232 238 248 262 280 293 299 301 303 306 310 313 315 317 316 312 311 309 308 307 304 303 300 301 301
222 228 232 236 247 265 282 292 296 300 304 310 314 317 318 318 319 318 314 313 311 312 313 307 309 313 309
223 231 231 234 246 264 280 289 295 300 307 312 315 318 321 320 318 319 319 316 314 318 323 328 327 323 301
223 230 226 234 248 265 280 288 294 301 306 314 320 322 321 322 321 320 317 316 314 314 318 319 328 315 323
223 226 226 237 252 270 278 283 291 300 312 319 323 322 322 321 319 317 316 314 312 312 318 318 282 285 314
Wind_Speed_850mb
22 20 19 18 18 17 16 17 18 18 19 19 21 22 24 25 26 26 29 30 31 34 36 38 40 43 49
20 19 19 19 19 20 19 19 19 19 18 18 18 18 19 21 25 30 36 37 39 39 42 45 45 46 49
18 18 18 18 19 18 16 16 15 14 14 14 15 17 20 23 26 29 32 34 37 41 47 52 53 54 54
20 21 21 21 21 20 19 18 17 17 18 19 22 25 28 32 35 39 43 46 48 50 50 50 53 60 60
23 24 24 24 23 20 19 17 15 14 16 20 25 30 35 39 43 47 50 53 56 60 61 61 62 62 63
21 22 22 21 20 18 16 15 15 18 23 28 33 37 42 46 48 51 52 54 56 59 63 67 69 71 71
22 23 23 22 21 19 18 19 22 25 28 33 39 44 47 49 50 52 53 55 58 61 64 68 70 73 75
23 24 24 23 21 20 20 22 25 29 34 41 46 49 49 49 50 52 55 57 59 63 65 68 70 72 77
24 26 26 25 24 23 22 25 29 35 41 47 48 47 47 47 50 53 55 58 61 63 66 66 68 69 71
28 30 29 27 25 24 25 27 33 40 45 46 46 47 48 50 53 56 58 62 63 65 68 69 69 70 70
32 32 30 29 27 26 27 31 37 41 43 44 45 47 48 49 51 56 57 64 67 69 74 75 74 74 71
38 35 34 31 29 27 29 34 38 40 41 41 43 44 45 46 50 55 60 61 66 72 77 78 78 73 68
42 37 36 33 29 28 30 34 36 38 39 38 38 40 45 49 54 58 62 64 66 66 72 75 73 59 43
42 36 36 32 29 28 31 33 34 35 34 34 37 42 48 51 53 56 58 60 59 54 51 59 37 49 26
45 40 37 33 30 29 30 30 31 30 31 35 40 46 50 54 57 57 54 50 50 49 41 25 20 16 63
48 42 38 33 28 27 28 27 26 27 31 37 43 48 52 55 56 55 49 44 40 41 36 23 21 35 24
Wind_Direction_850mb
193 198 203 215 222 226 233 240 242 246 251 255 258 261 263 262 262 265 269 273 272 275 276 274 272 270 266
196 199 203 209 221 229 233 237 241 245 251 257 262 266 266 265 267 268 265 264 267 267 266 267 265 261 261
198 203 206 206 209 210 213 217 222 231 240 253 266 275 281 284 286 285 284 283 280 277 271 271 274 275 274
209 216 220 224 225 223 222 226 232 241 253 265 274 280 284 285 285 285 284 283 281 279 277 274 271 267 266
223 227 227 225 224 224 224 227 234 248 263 275 282 286 288 288 287 286 285 284 283 282 279 277 275 273 271
218 220 217 211 210 212 218 231 250 268 279 287 291 293 293 292 290 289 287 285 284 282 281 279 276 274 271
221 218 212 210 213 220 236 255 268 279 288 295 299 300 299 297 296 294 293 292 290 287 284 282 280 277 273
221 218 216 218 225 237 253 268 281 290 298 304 306 304 302 300 299 299 299 298 297 296 293 289 286 282 279
224 222 223 227 235 248 264 278 290 300 307 307 304 302 301 304 307 307 306 304 302 299 297 294 291 288 284
224 225 229 234 243 255 268 283 296 304 305 304 304 305 308 312 312 311 310 307 304 301 298 296 294 292 291
226 227 233 238 247 258 274 290 299 302 303 305 307 310 313 314 314 313 312 310 309 306 303 302 300 297 294
222 227 232 238 248 262 280 293 299 301 303 306 310 313 315 317 316 312 311 309 308 307 304 303 300 301 301
222 228 232 236 247 265 282 292 296 300 304 310 314 317 318 318 319 318 314 313 311 312 313 307 309 313 309
223 231 231 234 246 264 280 289 295 300 307 312 315 318 321 320 318 319 319 316 314 318 323 328 327 323 301
223 230 226 234 248 265 280 288 294 301 306 314 320 322 321 322 321 320 317 316 314 314 318 319 328 315 323
223 226 226 237 252 270 278 283 291 300 312 319 323 322 322 321 319 317 316 314 312 312 318 318 282 285 314